SCP
0 0 0 0 0 0 0 0 0 0 0 0 0 0 0 0 0 0 0 0 0 0 0 0 0 0 0 0 0 0 0 0 0 0 0 0 0 0 0 0 0 0 0
0 0 0 0 0 0 0 0 0 0 0 0 0 0 0 0 0 0 0 0 0 0 0 0 0 0 0 0 0 0 0 0 0 0 0 0 0 0 0 0 0 0 0
0 0 0 0 0 0 0 0 0 0 0 0 0 0 0 0 0 0 0 0 0 0 0 0 0 0 0 0 0 0 0 0 0 0 0 0 0 0 0 0 0 0 0
0 0 0 0 0 0 0 0 0 0 0 0 0 0 0 0 0 0 0 0 0 0 0 0 0 0 0 0 0 0 0 0 0 0 0 0 0 0 0 0 0 0 0
0 0 0 0 0 0 0 0 0 0 0 0 0 0 0 0 0 0 0 0 0 0 0 0 0 0 0 0 0 0 0 0 0 0 0 0 0 0 0 0 0 0 0
0 0 0 0 0 0 0 0 0 0 0 0 0 0 0 0 0 0 0 0 0 0 0 0 0 0 0 0 0 0 0 0 0 0 0 0 0 0 0 0 0 0 0
0 0 0 0 0 0 0 0 0 0 0 0 0 0 0 0 0 0 0 0 0 0 0 0 0 0 0 0 0 0 0 0 0 0 0 0 0 0 0 0 0 0 0
0 0 0 0 0 0 0 0 0 0 0 0 0 0 0 0 0 0 0 0 0 0 0 0 0 0 0 0 0 0 0 0 0 0 0 0 0 0 0 0 0 0 0
0 0 0 0 0 0 0 0 0 0 0 0 0 0 0 0 0 0 0 0 0 0 0 0 0 0 0 0 0 0 0 0 0 0 0 0 0 0 0 0 0 0 0
0 0 0 0 0 0 0 0 0 0 0 0 0 0 0 0 0 0 0 0 0 0 0 0 0 0 0 0 0 0 0 0 0 0 0 0 0 0 0 0 0 0 0
0 0 0 0 0 0 0 0 0 0 0 0 0 0 0 0 0 0 0 0 0 0 0 0 0 0 0 0 0 0 0 0 0 0 0 0 0 0 0 0 0 0 0
0 0 0 0 0 0 0 0 0 0 0 0 0 0 0 0 0 0 0 0 0 0 0 0 0 0 0 0 0 0 0 0 0 0 0 0 0 0 0 0 0 0 0
0 0 0 0 0 0 0 0 0 0 0 0 0 0 0 0 0 0 0 0 0 0 0 0 0 0 0 0 0 0 0 0 0 0 0 0 0 0 0 0 0 0 0
0 0 0 0 0 0 0 0 0 0 0 0 0 0 0 0 0 0 0 0 0 0 0 0 0 0 0 0 0 0 0 0 0 0 0 0 0 0 0 0 0 0 0
0 0 0 0 0 0 0 0 0 0 0 0 0 0 0 0 0 0 0 0 0 0 0 0 0 0 0 0 0 0 0 0 0 0 0 0 0 0 0 0 0 0 0
0 0 0 0 0 0 0 0 0 0 0 0 0 0 0 0 0 0 0 0 0 0 0 0 0 0 0 0 0 0 0 0 0 0 0 0 0 0 0 0 0 0 0
0 0 0 0 0 0 0 0 0 0 0 0 0 0 0 0 0 0 0 0 0 0 0 0 0 0 0 0 0 0 0 0 0 0 0 0 0 0 0 0 0 0 0
0 0 0 0 0 0 0 0 0 0 0 0 0 0 0 0 0 0 0 0 0 0 0 0 0 0 0 0 0 0 0 0 0 0 0 0 0 0 0 0 0 0 0
0 0 0 0 0 0 0 0 0 0 0 0 0 0 0 0 0 0 0 0 0 0 0 0 0 0 0 0 0 0 0 0 0 0 0 0 0 0 0 0 0 0 0
0 0 0 0 0 0 0 0 0 0 0 0 0 0 0 0 0 0 0 0 0 0 0 0 0 0 0 0 0 0 0 0 0 0 0 0 0 0 0 0 0 0 0
0 0 0 0 0 0 0 0 0 0 0 0 0 0 0 0 0 0 0 0 0 0 0 0 0 0 0 0 0 0 0 0 0 0 0 0 0 0 0 0 0 0 0
0 0 0 0 0 0 0 0 0 0 0 0 0 0 0 0 0 0 0 0 0 0 0 0 0 0 0 0 0 0 0 0 0 0 0 0 0 0 0 0 0 0 0
0 0 0 0 0 0 0 0 0 0 0 0 0 0 0 0 0 0 0 0 0 0 0 0 0 0 0 0 0 0 0 0 0 0 0 0 0 0 0 0 0 0 0
0 0 0 0 0 0 0 0 0 0 0 0 0 0 0 0 0 0 0 0 0 0 0 0 0 0 0 0 0 0 0 0 0 0 0 0 0 0 0 0 0 0 0
0 0 0 0 0 0 0 0 0 0 0 0 0 0 0 0 0 0 0 0 0 0 0 0 0 0 0 0 0 0 0 0 0 0 0 0 0 0 0 0 0 0 0
0 0 0 0 0 0 0 0 0 0 0 0 0 0 0 0 0 0 0 0 0 0 0 0 0 0 0 0 0 0 0 0 0 0 0 0 0 0 0 0 0 0 0
Wind_Speed
5 5 4 3 4 3 3 3 3 4 4 4 4 4 4 4 3 3 3 8 9 9 9 7 7 6 6 6 6 5 5 4 4 5 5 4 4 4 4 3 3 2 1
6 5 5 4 4 4 4 4 4 4 3 2 3 3 3 3 3 3 3 4 8 8 9 8 7 6 6 6 6 5 5 5 6 5 6 6 6 6 6 5 5 4 3
6 5 4 4 4 4 4 3 3 2 2 2 2 3 2 3 3 3 3 2 3 6 7 8 7 6 5 5 6 5 5 5 6 6 7 7 8 7 8 7 7 6 5
6 5 4 4 4 3 3 3 2 2 2 1 2 2 2 2 3 3 2 2 2 2 3 5 5 5 4 4 5 5 5 5 5 5 6 6 7 8 9 9 9 8 7
6 5 4 4 3 3 2 2 2 2 2 2 2 3 3 3 3 2 2 2 2 2 1 2 3 1 1 3 5 6 6 6 5 5 6 6 6 7 8 8 9 9 9
5 5 3 3 3 2 2 2 2 2 2 2 2 2 3 3 2 2 2 1 1 1 1 1 1 1 2 3 4 6 7 6 5 5 6 7 7 7 7 8 8 8 9
5 5 4 3 3 3 3 3 2 2 2 1 0 2 3 2 2 2 1 0 0 1 2 2 2 2 2 5 6 6 7 8 7 6 6 6 7 7 8 8 8 8 9
4 4 4 3 3 3 3 2 2 2 2 2 2 1 2 3 2 2 2 1 2 2 3 4 4 4 3 2 5 7 8 8 8 7 7 6 7 7 7 7 7 7 8
4 4 4 3 3 3 2 2 2 3 2 2 2 3 2 3 1 2 3 3 3 3 3 3 5 4 4 3 3 6 8 8 8 9 8 7 7 8 8 7 6 6 6
4 4 4 3 3 2 2 2 2 2 3 2 2 3 3 3 2 1 1 2 4 4 4 4 4 5 4 3 4 7 8 8 8 9 9 8 7 7 7 6 5 4 4
3 3 4 3 3 2 2 2 2 2 2 3 2 2 2 2 3 3 2 1 1 3 3 3 3 3 4 3 3 5 8 8 8 9 9 8 8 8 7 6 5 4 3
2 3 3 3 3 2 2 1 1 2 2 2 2 2 2 2 2 3 3 2 2 1 2 3 3 2 3 3 4 7 8 9 9 9 8 8 8 8 8 7 5 5 4
2 2 2 3 2 2 2 1 1 1 1 1 2 2 2 2 2 2 2 2 2 2 2 1 2 2 2 2 3 7 7 8 9 10 11 11 11 11 11 9 7 6 6
3 3 3 3 2 2 2 1 1 0 0 0 1 1 0 1 1 1 2 2 2 2 2 3 1 1 2 2 3 6 4 8 9 10 11 11 12 11 11 11 10 10 8
4 4 4 3 3 3 2 2 1 0 1 1 0 0 0 0 0 0 0 1 2 3 3 3 2 1 1 1 3 3 3 7 9 10 10 11 11 11 11 11 11 11 10
5 5 4 4 3 3 2 2 1 1 1 1 1 1 1 0 1 1 0 0 1 2 2 2 2 1 1 2 4 3 3 7 8 9 9 10 10 10 11 11 11 11 11
5 5 4 4 3 2 2 2 1 1 1 1 1 1 1 1 1 1 1 0 0 1 2 2 2 1 2 2 2 2 3 3 3 7 8 8 9 10 10 11 11 11 11
5 4 4 4 3 3 2 2 2 2 2 2 1 1 1 1 1 1 1 0 0 0 2 3 2 1 2 2 2 2 2 3 2 6 7 7 8 8 9 9 10 10 10
5 4 4 4 3 3 2 2 2 2 2 2 2 2 1 2 1 1 1 1 0 1 2 3 3 2 1 1 2 2 3 3 3 5 6 6 7 8 8 8 9 9 9
5 4 4 4 3 3 2 2 2 2 2 2 2 2 2 2 2 1 1 1 1 2 3 3 3 2 2 2 2 2 1 2 2 4 5 5 6 7 7 7 8 8 7
5 5 4 4 3 3 2 3 3 3 3 3 2 2 2 2 3 2 1 1 2 2 3 3 3 2 2 2 1 1 1 1 2 2 2 3 3 3 4 5 5 6 6
5 5 4 4 3 2 4 6 5 3 3 3 2 2 1 2 3 4 4 4 4 4 3 3 2 3 3 2 2 2 2 1 1 1 1 2 2 2 2 2 3 4 4
5 4 4 4 4 4 6 6 7 4 3 3 3 2 1 2 3 3 4 6 5 4 5 4 4 4 4 4 4 2 2 1 1 1 1 1 2 1 2 3 4 3 4
4 4 4 4 4 4 7 7 7 4 3 3 3 3 3 2 2 3 3 3 3 3 3 2 3 3 3 4 4 4 3 2 1 1 1 0 1 2 2 3 4 3 4
4 4 4 5 4 4 7 8 7 3 3 3 3 3 4 3 5 6 4 3 2 2 3 6 6 5 7 7 6 4 3 2 1 0 1 1 1 2 2 2 4 5 5
5 5 4 4 5 4 8 9 9 3 3 2 2 3 6 6 7 7 5 4 3 1 1 3 4 4 3 3 5 4 4 3 1 1 0 1 0 1 2 2 2 2 3
Wind_Direction
180 182 191 193 197 198 206 219 229 240 249 251 246 242 249 250 245 236 240 235 231 230 233 236 240 246 250 255 259 257 255 257 253 246 244 242 233 226 224 224 217 209 196
180 183 189 193 201 204 208 212 218 226 236 238 248 247 248 255 254 245 240 242 238 238 239 241 246 251 259 265 270 266 262 260 255 250 249 247 244 237 232 229 228 226 224
179 180 184 192 201 202 203 205 217 217 227 233 253 264 265 268 264 256 246 236 243 243 242 243 248 255 266 279 282 281 274 268 263 256 254 250 245 240 236 234 231 229 228
174 172 177 191 195 189 187 190 195 200 226 243 262 274 278 278 271 263 252 238 230 231 233 235 243 255 272 290 300 299 291 283 271 267 262 262 256 246 241 239 235 232 230
174 171 180 191 185 178 183 192 188 189 221 250 263 272 278 273 270 268 263 245 225 209 207 221 226 244 300 310 314 317 313 309 295 282 272 265 263 256 251 246 242 236 234
175 171 173 182 175 170 181 187 197 202 212 233 268 282 283 278 273 264 260 256 230 198 181 155 130 76 49 13 351 342 339 331 312 301 286 274 268 263 257 253 246 240 236
173 171 169 172 171 177 190 190 182 204 225 196 251 306 308 298 299 295 283 259 46 91 93 94 94 83 58 46 29 11 357 345 333 317 303 296 285 277 265 257 250 247 242
165 167 166 172 173 175 187 189 182 191 219 181 173 235 309 329 354 7 17 60 66 70 73 72 75 79 72 54 33 24 10 354 344 334 321 312 307 299 285 272 260 255 247
155 151 159 160 160 163 181 189 185 192 217 224 192 189 213 245 298 353 24 41 50 59 65 67 68 67 66 55 35 22 15 360 349 340 333 322 314 308 302 296 285 270 256
156 153 153 156 161 167 182 196 182 197 198 224 234 223 219 198 210 262 358 39 49 49 49 60 63 62 55 45 36 28 18 5 355 344 339 330 323 316 314 312 307 292 279
153 151 151 152 160 170 182 183 184 200 202 210 214 218 232 231 218 217 229 193 68 44 44 52 57 57 48 36 23 27 24 14 1 349 344 347 345 334 327 329 331 325 311
141 142 139 139 144 151 163 181 195 211 217 220 224 216 211 216 215 211 223 199 175 116 63 49 51 50 44 31 29 31 24 22 14 6 9 13 11 5 357 351 356 359 358
156 155 136 135 135 138 141 147 164 203 225 223 231 233 234 234 223 212 217 209 177 151 135 75 43 47 50 29 21 32 20 25 28 31 33 35 35 30 26 27 31 30 32
146 142 133 129 127 121 113 111 122 148 125 187 235 216 213 264 268 234 213 193 199 175 161 152 79 50 43 27 43 39 14 33 41 42 41 42 40 35 33 36 38 38 40
137 136 131 125 116 106 103 103 110 97 116 113 136 116 133 52 6 330 281 219 207 210 194 154 156 94 53 46 53 39 18 39 47 51 51 47 43 39 38 40 41 41 44
132 132 127 122 114 108 108 113 113 108 113 104 111 107 94 67 43 23 10 282 238 211 171 135 142 137 90 80 70 49 32 43 44 52 53 49 46 43 43 43 42 42 45
132 136 137 130 124 116 114 122 131 136 132 111 91 111 105 82 70 30 36 74 240 176 157 124 106 109 92 87 62 46 38 35 26 45 52 51 50 50 48 45 43 45 45
131 134 133 128 125 122 120 132 144 140 141 142 126 116 111 96 82 50 65 87 115 123 142 143 129 119 101 120 96 71 40 33 22 42 50 52 53 53 50 47 45 45 45
129 128 128 132 132 132 129 127 131 131 130 133 135 134 126 120 103 61 68 80 74 79 104 130 132 116 99 106 88 62 48 22 21 32 38 45 51 51 49 47 47 47 46
137 135 132 135 135 133 132 130 125 120 112 102 99 109 114 134 148 139 108 101 108 102 105 114 115 107 99 88 93 89 50 20 14 11 19 32 40 41 41 45 45 45 44
143 141 136 135 133 135 149 148 140 136 130 114 95 94 110 137 148 149 143 146 134 123 120 119 120 116 120 125 137 124 109 21 5 10 360 8 17 19 13 17 30 38 39
145 144 149 150 155 165 176 173 157 145 145 146 139 117 98 86 105 102 109 120 141 144 146 139 140 151 161 157 139 130 123 110 284 335 20 350 14 9 346 335 1 32 37
153 155 160 159 164 181 187 183 174 154 158 165 163 158 143 116 89 73 78 69 68 103 145 153 157 170 167 171 152 140 143 152 205 279 32 334 354 339 326 336 351 32 31
162 166 170 168 169 193 197 190 179 152 158 171 174 174 165 154 152 136 109 81 56 48 95 119 149 160 162 159 158 155 152 131 78 10 51 107 332 320 326 332 342 20 20
167 170 170 171 176 198 203 196 173 146 162 183 189 185 179 184 187 164 140 126 92 45 85 120 132 141 149 151 143 121 123 111 115 317 18 94 331 322 321 321 338 2 7
171 169 176 182 185 199 209 204 184 161 173 185 192 202 201 198 199 180 160 157 158 167 97 90 86 80 77 111 134 139 146 139 150 224 271 96 47 18 332 311 322 343 358